| time (UTC) | temp C | wind direction | speed KPH | gust KPH | rain 1hr cm | rain 24hr cm | rain mn cm | humidity % | barometer mb |
| 20260906085005 | 16 | 296 | 1.6 | 11.3 | 0.00 | 0.00 | 0.00 | 80 | 1019.4 |
| 20260906084005 | 16 | 287 | 0.0 | 4.8 | 0.00 | 0.00 | 0.00 | 82 | 1019.4 |
| 20260906083008 | 15 | 300 | 0.0 | 19.3 | 0.00 | 0.00 | 0.00 | 82 | 1019.4 |
| 20260906082006 | 15 | 303 | 1.6 | 19.3 | 0.00 | 0.00 | 0.00 | 82 | 1019.4 |
| 20260906081005 | 15 | 280 | 1.6 | 20.9 | 0.00 | 0.00 | 0.00 | 82 | 1019.2 |
| 20260906080008 | 15 | 302 | 1.6 | 24.1 | 0.00 | 0.00 | 0.00 | 84 | 1019.0 |
| 20260906075005 | 15 | 311 | 8.0 | 24.1 | 0.00 | 0.00 | 0.00 | 83 | 1018.8 |
| 20260906074006 | 15 | 289 | 8.0 | 20.9 | 0.00 | 0.00 | 0.00 | 83 | 1018.8 |
| 20260906073008 | 15 | 288 | 1.6 | 20.9 | 0.00 | 0.00 | 0.00 | 84 | 1018.8 |
| 20260906072005 | 14 | 310 | 3.2 | 22.5 | 0.00 | 0.00 | 0.00 | 84 | 1018.6 |
| 20260906071005 | 14 | 300 | 1.6 | 32.2 | 0.00 | 0.00 | 0.00 | 84 | 1018.3 |
| 20260906070007 | 14 | 299 | 8.0 | 32.2 | 0.00 | 0.00 | 0.00 | 84 | 1018.3 |
| 20260906065006 | 14 | 300 | 8.0 | 32.2 | 0.00 | 0.00 | 0.00 | 85 | 1018.3 |
| 20260906064005 | 14 | 293 | 4.8 | 29.0 | 0.00 | 0.00 | 0.00 | 85 | 1018.2 |
| 20260906063011 | 14 | 298 | 0.0 | 9.7 | 0.00 | 0.00 | 0.00 | 86 | 1018.1 |
| 20260906062007 | 13 | 286 | 3.2 | 16.1 | 0.00 | 0.00 | 0.00 | 86 | 1017.8 |
| 20260906061007 | 13 | 280 | 3.2 | 24.1 | 0.00 | 0.00 | 0.00 | 86 | 1017.8 |
| 20260906060010 | 13 | 307 | 1.6 | 24.1 | 0.00 | 0.00 | 0.00 | 86 | 1017.8 |
| 20260906055009 | 13 | 297 | 3.2 | 24.1 | 0.00 | 0.00 | 0.00 | 86 | 1017.6 |
| 20260906054009 | 13 | 294 | 1.6 | 20.9 | 0.00 | 0.00 | 0.00 | 86 | 1017.4 |
| 20260906053009 | 13 | 290 | 4.8 | 24.1 | 0.00 | 0.00 | 0.00 | 86 | 1017.3 |
| 20260906052006 | 13 | 297 | 11.3 | 29.0 | 0.00 | 0.00 | 0.00 | 87 | 1017.2 |
| 20260906051006 | 13 | 300 | 3.2 | 22.5 | 0.00 | 0.00 | 0.00 | 87 | 1017.2 |
| 20260906050007 | 13 | 294 | 3.2 | 24.1 | 0.00 | 0.00 | 0.00 | 87 | 1017.1 |
| 20260906045005 | 13 | 293 | 3.2 | 27.4 | 0.00 | 0.00 | 0.00 | 87 | 1017.0 |
| 20260906044006 | 13 | 293 | 1.6 | 25.7 | 0.00 | 0.00 | 0.00 | 86 | 1016.8 |
| 20260906043009 | 13 | 297 | 3.2 | 32.2 | 0.00 | 0.00 | 0.00 | 86 | 1016.7 |
| 20260906042005 | 13 | 281 | 1.6 | 32.2 | 0.00 | 0.00 | 0.00 | 86 | 1016.5 |
| 20260906041006 | 13 | 289 | 4.8 | 27.4 | 0.00 | 0.00 | 0.00 | 86 | 1016.3 |
| 20260906040008 | 13 | 296 | 6.4 | 32.2 | 0.00 | 0.00 | 0.00 | 86 | 1016.2 |
| 20260906035006 | 13 | 288 | 4.8 | 22.5 | 0.00 | 0.00 | 0.00 | 86 | 1015.8 |
| 20260906034006 | 13 | 292 | 1.6 | 22.5 | 0.00 | 0.00 | 0.00 | 85 | 1015.7 |
| 20260906033008 | 13 | 296 | 6.4 | 48.3 | 0.00 | 0.00 | 0.00 | 85 | 1015.7 |
| 20260906032005 | 13 | 290 | 6.4 | 40.2 | 0.00 | 0.00 | 0.00 | 85 | 1015.6 |
| 20260906031005 | 13 | 298 | 14.5 | 33.8 | 0.00 | 0.00 | 0.00 | 85 | 1015.6 |
| 20260906030008 | 14 | 290 | 4.8 | 40.2 | 0.00 | 0.00 | 0.00 | 84 | 1015.5 |
| 20260906025005 | 14 | 302 | 20.9 | 41.8 | 0.00 | 0.00 | 0.00 | 85 | 1015.2 |
| 20260906024005 | 14 | 298 | 8.0 | 41.8 | 0.00 | 0.00 | 0.00 | 85 | 1015.2 |
| 20260906023008 | 14 | 294 | 11.3 | 41.8 | 0.00 | 0.00 | 0.00 | 85 | 1015.1 |
| 20260906022006 | 14 | 297 | 14.5 | 41.8 | 0.00 | 0.00 | 0.00 | 85 | 1014.9 |
| 20260906021005 | 14 | 304 | 11.3 | 41.8 | 0.00 | 0.00 | 0.00 | 84 | 1014.8 |
| 20260906020009 | 13 | 290 | 11.3 | 37.0 | 0.00 | 0.00 | 0.00 | 85 | 1014.6 |
| 20260906015006 | 14 | 305 | 9.7 | 37.0 | 0.00 | 0.00 | 0.00 | 85 | 1014.7 |
| 20260906014005 | 14 | 294 | 3.2 | 32.2 | 0.00 | 0.00 | 0.00 | 85 | 1014.6 |
| 20260906013007 | 14 | 290 | 8.0 | 41.8 | 0.00 | 0.00 | 0.00 | 84 | 1014.5 |
| 20260906012005 | 14 | 283 | 9.7 | 32.2 | 0.00 | 0.00 | 0.00 | 84 | 1014.5 |
| 20260906011006 | 14 | 291 | 3.2 | 25.7 | 0.00 | 0.00 | 0.00 | 84 | 1014.3 |
| 20260906010008 | 13 | 298 | 1.6 | 35.4 | 0.00 | 0.00 | 0.00 | 84 | 1014.1 |
| 20260906005005 | 13 | 280 | 3.2 | 33.8 | 0.00 | 0.00 | 0.00 | 84 | 1014.1 |
| 20260906004006 | 14 | 283 | 3.2 | 37.0 | 0.00 | 0.00 | 0.00 | 84 | 1014.0 |
| 20260906003008 | 14 | 292 | 8.0 | 51.5 | 0.00 | 0.00 | 0.00 | 84 | 1013.9 |
| 20260906002006 | 14 | 283 | 9.7 | 38.6 | 0.00 | 0.00 | 0.00 | 85 | 1013.8 |
| 20260906001005 | 14 | 299 | 8.0 | 41.8 | 0.00 | 0.00 | 0.00 | 85 | 1013.5 |
| 20260906000008 | 14 | 297 | 9.7 | 37.0 | 0.00 | 0.00 | 0.00 | 84 | 1013.5 |
| 20260905235006 | 14 | 291 | 3.2 | 40.2 | 0.00 | 0.00 | 0.00 | 84 | 1013.4 |
| 20260905234005 | 14 | 279 | 4.8 | 32.2 | 0.00 | 0.00 | 0.00 | 84 | 1013.2 |
| 20260905233008 | 14 | 283 | 1.6 | 41.8 | 0.00 | 0.00 | 0.00 | 83 | 1013.1 |
| 20260905232006 | 14 | 289 | 6.4 | 37.0 | 0.00 | 0.00 | 0.00 | 83 | 1013.0 |
| 20260905231005 | 14 | 285 | 4.8 | 38.6 | 0.00 | 0.00 | 0.00 | 83 | 1012.9 |
| 20260905230007 | 14 | 283 | 8.0 | 27.4 | 0.00 | 0.00 | 0.00 | 82 | 1012.9 |
| 20260905225006 | 14 | 286 | 8.0 | 40.2 | 0.00 | 0.00 | 0.00 | 82 | 1012.6 |
| 20260905224006 | 14 | 290 | 6.4 | 32.2 | 0.00 | 0.00 | 0.00 | 82 | 1012.5 |
| 20260905223008 | 14 | 298 | 8.0 | 32.2 | 0.00 | 0.00 | 0.00 | 82 | 1012.4 |
| 20260905222006 | 14 | 281 | 4.8 | 32.2 | 0.00 | 0.00 | 0.00 | 82 | 1012.3 |
| 20260905221005 | 14 | 287 | 3.2 | 32.2 | 0.00 | 0.00 | 0.00 | 82 | 1012.0 |
| 20260905220008 | 14 | 282 | 1.6 | 27.4 | 0.00 | 0.00 | 0.00 | 82 | 1012.0 |
| 20260905215006 | 14 | 292 | 3.2 | 35.4 | 0.00 | 0.00 | 0.00 | 81 | 1011.8 |
| 20260905214005 | 14 | 287 | 1.6 | 16.1 | 0.00 | 0.00 | 0.00 | 82 | 1011.5 |
| 20260905213007 | 14 | 277 | 1.6 | 19.3 | 0.00 | 0.00 | 0.00 | 83 | 1011.5 |
| 20260905212006 | 15 | 282 | 1.6 | 25.7 | 0.00 | 0.00 | 0.00 | 82 | 1011.4 |
| 20260905211005 | 15 | 279 | 0.0 | 20.9 | 0.00 | 0.00 | 0.00 | 82 | 1011.2 |
| 20260905210008 | 15 | 277 | 1.6 | 20.9 | 0.00 | 0.00 | 0.00 | 82 | 1011.1 |
| 20260905205006 | 15 | 262 | 0.0 | 16.1 | 0.00 | 0.00 | 0.00 | 82 | 1011.0 |
| 20260905204006 | 15 | 276 | 1.6 | 20.9 | 0.00 | 0.00 | 0.00 | 82 | 1010.9 |
| 20260905203008 | 15 | 281 | 1.6 | 11.3 | 0.00 | 0.00 | 0.00 | 82 | 1010.9 |
| 20260905202006 | 15 | 277 | 1.6 | 22.5 | 0.00 | 0.00 | 0.00 | 83 | 1010.8 |
| 20260905201005 | 15 | 271 | 1.6 | 32.2 | 0.00 | 0.00 | 0.00 | 82 | 1010.6 |
| 20260905200008 | 15 | 262 | 1.6 | 19.3 | 0.00 | 0.00 | 0.00 | 82 | 1010.5 |
| 20260905195006 | 15 | 273 | 0.0 | 14.5 | 0.00 | 0.00 | 0.00 | 80 | 1010.4 |
| 20260905194006 | 15 | 273 | 3.2 | 24.1 | 0.00 | 0.00 | 0.00 | 79 | 1010.4 |
| 20260905193008 | 15 | 273 | 1.6 | 11.3 | 0.00 | 0.00 | 0.00 | 79 | 1010.3 |
| 20260905192006 | 15 | 270 | 1.6 | 20.9 | 0.00 | 0.00 | 0.00 | 79 | 1010.2 |
| 20260905191005 | 15 | 273 | 3.2 | 24.1 | 0.00 | 0.00 | 0.00 | 79 | 1010.0 |
| 20260905190018 | 15 | 282 | 3.2 | 25.7 | 0.00 | 0.03 | 0.00 | 80 | 1010.0 |
| 20260905185006 | 15 | 283 | 1.6 | 25.7 | 0.00 | 0.03 | 0.00 | 80 | 1009.9 |
| 20260905184006 | 14 | 271 | 3.2 | 37.0 | 0.00 | 0.10 | 0.00 | 80 | 1009.9 |
| 20260905183008 | 14 | 271 | 1.6 | 32.2 | 0.00 | 0.10 | 0.00 | 83 | 1009.8 |
| 20260905182005 | 14 | 271 | 0.0 | 8.0 | 0.00 | 0.10 | 0.00 | 84 | 1009.6 |
| 20260905181005 | 15 | 297 | 0.0 | 25.7 | 0.00 | 0.13 | 0.00 | 83 | 1009.7 |
| 20260905180008 | 15 | 250 | 1.6 | 24.1 | 0.00 | 0.13 | 0.00 | 80 | 1009.3 |
| 20260905175005 | 15 | 261 | 1.6 | 25.7 | 0.00 | 0.13 | 0.00 | 79 | 1009.3 |
| 20260905174005 | 15 | 289 | 1.6 | 16.1 | 0.00 | 0.13 | 0.00 | 77 | 1009.1 |
| 20260905173008 | 15 | 271 | 1.6 | 24.1 | 0.00 | 0.13 | 0.00 | 77 | 1008.9 |
| 20260905172006 | 15 | 271 | 1.6 | 25.7 | 0.00 | 0.13 | 0.00 | 76 | 1008.8 |
| 20260905171005 | 15 | 282 | 3.2 | 27.4 | 0.00 | 0.13 | 0.00 | 75 | 1008.8 |
| 20260905170007 | 16 | 270 | 0.0 | 14.5 | 0.00 | 0.13 | 0.00 | 77 | 1008.7 |
| 20260905165005 | 16 | 244 | 0.0 | 14.5 | 0.00 | 0.13 | 0.00 | 79 | 1008.7 |
| 20260905164006 | 16 | 244 | 0.0 | 11.3 | 0.00 | 0.13 | 0.00 | 78 | 1008.5 |
| 20260905163008 | 16 | 257 | 1.6 | 11.3 | 0.00 | 0.13 | 0.00 | 78 | 1008.3 |
| 20260905162006 | 16 | 281 | 0.0 | 11.3 | 0.00 | 0.13 | 0.00 | 78 | 1008.3 |
| 20260905161005 | 16 | 255 | 0.0 | 9.7 | 0.00 | 0.13 | 0.00 | 78 | 1008.1 |
| 20260905160008 | 16 | 252 | 0.0 | 4.8 | 0.00 | 0.13 | 0.00 | 77 | 1007.9 |
| 20260905155005 | 16 | 266 | 0.0 | 9.7 | 0.00 | 0.13 | 0.00 | 77 | 1007.8 |
| 20260905154005 | 16 | 264 | 1.6 | 9.7 | 0.00 | 0.13 | 0.00 | 77 | 1007.9 |
| 20260905153008 | 16 | 278 | 1.6 | 11.3 | 0.00 | 0.13 | 0.00 | 76 | 1007.8 |
| 20260905152005 | 16 | 251 | 0.0 | 16.1 | 0.00 | 0.13 | 0.00 | 73 | 1007.7 |
| 20260905151005 | 17 | 284 | 0.0 | 11.3 | 0.00 | 0.13 | 0.00 | 73 | 1007.7 |
| 20260905150008 | 17 | 246 | 3.2 | 32.2 | 0.00 | 0.13 | 0.00 | 77 | 1007.5 |
| 20260905145006 | 17 | 241 | 1.6 | 14.5 | 0.00 | 0.13 | 0.00 | 77 | 1007.5 |
| 20260905144006 | 16 | 257 | 1.6 | 16.1 | 0.00 | 0.13 | 0.00 | 76 | 1007.3 |
| 20260905143008 | 17 | 250 | 0.0 | 11.3 | 0.00 | 0.15 | 0.00 | 75 | 1007.3 |
| 20260905142005 | 17 | 265 | 0.0 | 9.7 | 0.00 | 0.15 | 0.00 | 73 | 1007.2 |
| 20260905141006 | 17 | 260 | 1.6 | 9.7 | 0.00 | 0.15 | 0.00 | 74 | 1007.2 |
| 20260905140008 | 18 | 254 | 0.0 | 11.3 | 0.00 | 0.15 | 0.00 | 73 | 1007.2 |
| 20260905135006 | 18 | 230 | 0.0 | 9.7 | 0.00 | 0.15 | 0.00 | 74 | 1007.2 |
| 20260905134007 | 18 | 248 | 1.6 | 4.8 | 0.00 | 0.15 | 0.00 | 74 | 1007.1 |
| 20260905133008 | 18 | 243 | 1.6 | 19.3 | 0.00 | 0.15 | 0.00 | 74 | 1007.0 |
| 20260905132005 | 18 | 239 | 0.0 | 19.3 | 0.00 | 0.18 | 0.00 | 75 | 1006.8 |
| 20260905131006 | 17 | 260 | 3.2 | 19.3 | 0.00 | 0.28 | 0.00 | 75 | 1006.8 |
| 20260905130008 | 17 | 263 | 3.2 | 19.3 | 0.00 | 0.41 | 0.00 | 75 | 1006.8 |
| 20260905125006 | 17 | 250 | 0.0 | 14.5 | 0.00 | 0.61 | 0.00 | 76 | 1006.7 |
| 20260905124005 | 17 | 240 | 1.6 | 11.3 | 0.00 | 0.74 | 0.00 | 75 | 1006.6 |
| 20260905123008 | 17 | 254 | 1.6 | 11.3 | 0.00 | 0.79 | 0.00 | 76 | 1006.6 |
| 20260905122005 | 17 | 258 | 0.0 | 4.8 | 0.00 | 0.81 | 0.00 | 76 | 1006.6 |
| 20260905121006 | 17 | 240 | 0.0 | 8.0 | 0.00 | 0.84 | 0.00 | 75 | 1006.2 |
| 20260905120007 | 17 | 241 | 0.0 | 14.5 | 0.00 | 0.84 | 0.00 | 75 | 1006.2 |
| 20260905115006 | 17 | 256 | 0.0 | 16.1 | 0.00 | 0.89 | 0.00 | 75 | 1006.2 |
| 20260905114005 | 17 | 236 | 0.0 | 19.3 | 0.00 | 0.91 | 0.00 | 75 | 1006.1 |
| 20260905113008 | 17 | 249 | 0.0 | 19.3 | 0.00 | 0.97 | 0.00 | 74 | 1006.1 |
| 20260905112006 | 17 | 255 | 0.0 | 11.3 | 0.00 | 0.99 | 0.00 | 73 | 1005.8 |
| 20260905111005 | 17 | 226 | 0.0 | 9.7 | 0.00 | 0.99 | 0.00 | 76 | 1005.7 |
| 20260905110008 | 17 | 244 | 0.0 | 4.8 | 0.00 | 1.02 | 0.00 | 75 | 1005.7 |
| 20260905105005 | 17 | 247 | 0.0 | 4.8 | 0.00 | 1.04 | 0.00 | 77 | 1005.6 |
| 20260905104006 | 17 | 258 | 1.6 | 14.5 | 0.00 | 1.04 | 0.00 | 76 | 1005.6 |
| 20260905103008 | 17 | 215 | 0.0 | 8.0 | 0.00 | 1.07 | 0.00 | 77 | 1005.6 |
| 20260905102005 | 17 | 237 | 1.6 | 14.5 | 0.00 | 1.09 | 0.00 | 76 | 1005.5 |
| 20260905101005 | 17 | 213 | 0.0 | 14.5 | 0.00 | 1.09 | 0.00 | 78 | 1005.3 |
| 20260905100007 | 16 | 265 | 0.0 | 11.3 | 0.00 | 1.09 | 0.00 | 77 | 1005.3 |
| 20260905095005 | 17 | 270 | 0.0 | 11.3 | 0.00 | 1.09 | 0.00 | 77 | 1005.3 |
| 20260905094005 | 17 | 250 | 1.6 | 19.3 | 0.00 | 1.09 | 0.00 | 76 | 1005.2 |
| 20260905093008 | 16 | 251 | 1.6 | 24.1 | 0.00 | 1.12 | 0.00 | 77 | 1005.1 |
| 20260905092005 | 16 | 265 | 0.0 | 11.3 | 0.00 | 1.14 | 0.00 | 75 | 1005.0 |
| 20260905091005 | 16 | 247 | 1.6 | 16.1 | 0.00 | 1.14 | 0.00 | 75 | 1004.9 |
| 20260905090007 | 16 | 274 | 0.0 | 19.3 | 0.00 | 1.14 | 0.00 | 76 | 1004.9 |